Climatologie pour Saint-Brevin les Pins
Jour • Résumé pour juin 24, 2017 Système :  Métrique    Anglais   Mixte
« - 1 jour
+ 1 jour »
Jour Semaine Mois Année Personnalisé
  Maximum : Minimum : Moyenne :
Température sous abri : 23.0 °C 16.1 °C 19.2 °C
Point de rosée : 18.3 °C 14.6 °C 16.2 °C
Humidité : 94 % 68 % 83 %
Vitesse du vent : 25.7 km/h 0.0 km/h 7.6 km/h
Rafale : 29.0 km/h - -
Direction :- - West
Pression : 1022.9 hPa 1018.8 hPa -
Précipitations : 0.0 mm    
Historical Graphs
 
 
Tableau de données pour juin 24, 2017
Heure Tempé Pt rosée Pression Vent Vitesse Rafale Humidité Taux pluie (/hr) Soleil
00:00 17.2 °C 15.0 °C 1022.9 hPa WSW 3.2 km/h 19.3 km/h 87 % 0.0 mm 0 W/m2
00:10 17.2 °C 14.9 °C 1022.9 hPa NNW 4.8 km/h 16.1 km/h 86 % 0.0 mm 0 W/m2
00:15 17.2 °C 14.8 °C 1022.9 hPa WSW 8.0 km/h 16.1 km/h 86 % 0.0 mm 0 W/m2
00:20 17.1 °C 14.7 °C 1022.9 hPa West 8.0 km/h 16.1 km/h 86 % 0.0 mm 0 W/m2
00:25 16.9 °C 14.8 °C 1022.6 hPa WNW 6.4 km/h 16.1 km/h 87 % 0.0 mm 0 W/m2
00:30 16.9 °C 14.7 °C 1022.6 hPa WNW 11.3 km/h 16.1 km/h 87 % 0.0 mm 0 W/m2
00:35 16.8 °C 14.6 °C 1022.6 hPa Calm   16.1 km/h 87 % 0.0 mm 0 W/m2
00:40 16.7 °C 14.7 °C 1022.6 hPa WNW 3.2 km/h 12.9 km/h 88 % 0.0 mm 0 W/m2
00:45 16.6 °C 14.8 °C 1022.9 hPa WNW 4.8 km/h 17.7 km/h 89 % 0.0 mm 0 W/m2
00:50 16.6 °C 14.7 °C 1022.6 hPa WNW 4.8 km/h 17.7 km/h 89 % 0.0 mm 0 W/m2
00:55 16.4 °C 14.6 °C 1022.6 hPa WNW 9.7 km/h 12.9 km/h 89 % 0.0 mm 0 W/m2
01:00 16.5 °C 14.7 °C 1022.6 hPa NW 6.4 km/h 12.9 km/h 89 % 0.0 mm 0 W/m2
01:05 16.5 °C 14.7 °C 1022.6 hPa WNW 3.2 km/h 14.5 km/h 89 % 0.0 mm 0 W/m2
01:10 16.6 °C 14.7 °C 1022.6 hPa West 4.8 km/h 14.5 km/h 89 % 0.0 mm 0 W/m2
01:15 16.6 °C 14.7 °C 1022.6 hPa WNW 9.7 km/h 17.7 km/h 89 % 0.0 mm 0 W/m2
01:20 16.7 °C 14.8 °C 1022.6 hPa NW 4.8 km/h 17.7 km/h 89 % 0.0 mm 0 W/m2
01:25 16.7 °C 14.7 °C 1022.6 hPa NW 4.8 km/h 12.9 km/h 88 % 0.0 mm 0 W/m2
01:30 16.5 °C 14.7 °C 1022.6 hPa WNW 4.8 km/h 12.9 km/h 89 % 0.0 mm 0 W/m2
01:35 16.6 °C 14.7 °C 1022.6 hPa West 1.6 km/h 12.9 km/h 89 % 0.0 mm 0 W/m2
01:40 16.6 °C 14.7 °C 1022.6 hPa WNW 4.8 km/h 12.9 km/h 89 % 0.0 mm 0 W/m2
01:45 16.4 °C 14.6 °C 1022.2 hPa WNW 3.2 km/h 11.3 km/h 89 % 0.0 mm 0 W/m2
01:50 16.4 °C 14.8 °C 1022.6 hPa West 1.6 km/h 11.3 km/h 90 % 0.0 mm 0 W/m2
01:55 16.5 °C 14.7 °C 1022.2 hPa WNW 3.2 km/h 12.9 km/h 89 % 0.0 mm 0 W/m2
02:00 16.4 °C 14.8 °C 1022.2 hPa NW 4.8 km/h 12.9 km/h 90 % 0.0 mm 0 W/m2
02:05 16.3 °C 14.6 °C 1022.2 hPa WNW 3.2 km/h 9.7 km/h 90 % 0.0 mm 0 W/m2
02:10 16.3 °C 14.6 °C 1022.2 hPa West 1.6 km/h 9.7 km/h 90 % 0.0 mm 0 W/m2
02:15 16.3 °C 14.7 °C 1022.2 hPa WNW 3.2 km/h 11.3 km/h 90 % 0.0 mm 0 W/m2
02:20 16.2 °C 14.6 °C 1022.2 hPa Calm   11.3 km/h 90 % 0.0 mm 0 W/m2
02:25 16.2 °C 14.7 °C 1022.2 hPa West 6.4 km/h 11.3 km/h 91 % 0.0 mm 0 W/m2
02:30 16.1 °C 14.6 °C 1021.9 hPa Calm   11.3 km/h 91 % 0.0 mm 0 W/m2
02:35 16.2 °C 14.7 °C 1021.9 hPa WNW 3.2 km/h 11.3 km/h 91 % 0.0 mm 0 W/m2
02:40 16.3 °C 15.0 °C 1021.9 hPa NW 9.7 km/h 16.1 km/h 92 % 0.0 mm 0 W/m2
02:50 16.6 °C 15.0 °C 1021.9 hPa WNW 3.2 km/h 16.1 km/h 90 % 0.0 mm 0 W/m2
02:55 16.5 °C 14.9 °C 1021.9 hPa WNW 1.6 km/h 12.9 km/h 90 % 0.0 mm 0 W/m2
03:00 16.5 °C 15.0 °C 1021.6 hPa NW 4.8 km/h 11.3 km/h 91 % 0.0 mm 0 W/m2
03:05 16.4 °C 15.0 °C 1021.6 hPa West 1.6 km/h 9.7 km/h 91 % 0.0 mm 0 W/m2
03:10 16.6 °C 15.1 °C 1021.6 hPa West 3.2 km/h 11.3 km/h 91 % 0.0 mm 0 W/m2
03:15 16.5 °C 15.0 °C 1021.6 hPa NW 1.6 km/h 11.3 km/h 91 % 0.0 mm 0 W/m2
03:20 16.7 °C 15.4 °C 1021.6 hPa WNW 4.8 km/h 11.3 km/h 92 % 0.0 mm 0 W/m2
03:25 16.7 °C 15.2 °C 1021.6 hPa West 3.2 km/h 11.3 km/h 91 % 0.0 mm 0 W/m2
03:30 16.7 °C 15.2 °C 1021.6 hPa WSW 4.8 km/h 12.9 km/h 91 % 0.0 mm 0 W/m2
03:35 16.8 °C 15.4 °C 1021.6 hPa West 4.8 km/h 12.9 km/h 91 % 0.0 mm 0 W/m2
03:40 16.8 °C 15.3 °C 1021.6 hPa West 1.6 km/h 11.3 km/h 91 % 0.0 mm 0 W/m2
03:45 16.8 °C 15.3 °C 1021.6 hPa WSW 4.8 km/h 11.3 km/h 91 % 0.0 mm 0 W/m2
03:50 16.8 °C 15.5 °C 1021.2 hPa West 9.7 km/h 9.7 km/h 92 % 0.0 mm 0 W/m2
03:55 16.7 °C 15.2 °C 1021.6 hPa West 6.4 km/h 9.7 km/h 91 % 0.0 mm 0 W/m2
04:05 16.8 °C 15.5 °C 1021.2 hPa West 3.2 km/h 14.5 km/h 92 % 0.0 mm 0 W/m2
04:10 16.8 °C 15.5 °C 1021.2 hPa WNW 1.6 km/h 14.5 km/h 92 % 0.0 mm 0 W/m2
04:15 16.9 °C 15.6 °C 1021.2 hPa Calm   11.3 km/h 92 % 0.0 mm 0 W/m2
04:20 16.9 °C 15.6 °C 1021.2 hPa WSW 4.8 km/h 11.3 km/h 92 % 0.0 mm 0 W/m2
04:25 16.9 °C 15.4 °C 1021.2 hPa West 9.7 km/h 12.9 km/h 91 % 0.0 mm 0 W/m2
04:30 16.9 °C 15.4 °C 1021.2 hPa WSW 4.8 km/h 12.9 km/h 91 % 0.0 mm 0 W/m2
04:35 16.8 °C 15.5 °C 1021.2 hPa WSW 4.8 km/h 11.3 km/h 92 % 0.0 mm 0 W/m2
04:40 16.8 °C 15.5 °C 1021.2 hPa SW 3.2 km/h 11.3 km/h 92 % 0.0 mm 0 W/m2
04:45 16.8 °C 15.5 °C 1020.9 hPa WSW 3.2 km/h 11.3 km/h 92 % 0.0 mm 0 W/m2
04:50 16.8 °C 15.5 °C 1020.9 hPa WSW 3.2 km/h 11.3 km/h 92 % 0.0 mm 0 W/m2
04:55 16.8 °C 15.5 °C 1020.9 hPa WSW 11.3 km/h 16.1 km/h 92 % 0.0 mm 0 W/m2
05:00 16.8 °C 15.5 °C 1021.2 hPa West 4.8 km/h 16.1 km/h 92 % 0.0 mm 0 W/m2
05:05 16.8 °C 15.5 °C 1021.2 hPa WSW 4.8 km/h 12.9 km/h 92 % 0.0 mm 0 W/m2
05:10 16.9 °C 15.6 °C 1020.9 hPa WSW 6.4 km/h 14.5 km/h 92 % 0.0 mm 0 W/m2
05:15 16.9 °C 15.6 °C 1020.9 hPa WSW 6.4 km/h 14.5 km/h 92 % 0.0 mm 0 W/m2
05:20 16.9 °C 15.6 °C 1020.9 hPa WSW 8.0 km/h 11.3 km/h 92 % 0.0 mm 0 W/m2
05:25 16.9 °C 15.7 °C 1020.9 hPa WSW 8.0 km/h 14.5 km/h 93 % 0.0 mm 0 W/m2
05:30 16.8 °C 15.7 °C 1020.9 hPa West 4.8 km/h 14.5 km/h 93 % 0.0 mm 0 W/m2
05:35 16.9 °C 15.8 °C 1020.9 hPa West 4.8 km/h 14.5 km/h 93 % 0.0 mm 0 W/m2
05:40 16.9 °C 15.7 °C 1020.9 hPa Calm   11.3 km/h 93 % 0.0 mm 0 W/m2
05:45 16.8 °C 15.5 °C 1020.9 hPa WSW 4.8 km/h 11.3 km/h 92 % 0.0 mm 0 W/m2
05:50 16.8 °C 15.6 °C 1020.9 hPa WSW 6.4 km/h 11.3 km/h 93 % 0.0 mm 0 W/m2
05:55 16.9 °C 15.7 °C 1020.9 hPa Calm   11.3 km/h 93 % 0.0 mm 0 W/m2
06:00 16.8 °C 15.7 °C 1020.9 hPa West 3.2 km/h 11.3 km/h 93 % 0.0 mm 0 W/m2
06:05 16.8 °C 15.6 °C 1020.9 hPa West 4.8 km/h 8.0 km/h 93 % 0.0 mm 5 W/m2
06:10 16.7 °C 15.6 °C 1020.9 hPa West 1.6 km/h 9.7 km/h 93 % 0.0 mm 5 W/m2
06:15 16.6 °C 15.5 °C 1020.9 hPa WSW 3.2 km/h 9.7 km/h 93 % 0.0 mm 5 W/m2
06:20 16.7 °C 15.8 °C 1020.9 hPa West 3.2 km/h 12.9 km/h 94 % 0.0 mm 7 W/m2
06:25 16.9 °C 15.9 °C 1020.9 hPa West 8.0 km/h 12.9 km/h 94 % 0.0 mm 12 W/m2
06:30 17.0 °C 15.9 °C 1020.9 hPa WSW 6.4 km/h 12.9 km/h 93 % 0.0 mm 21 W/m2
06:35 17.0 °C 15.9 °C 1020.9 hPa West 3.2 km/h 12.9 km/h 93 % 0.0 mm 26 W/m2
06:40 17.1 °C 16.0 °C 1020.9 hPa WSW 8.0 km/h 9.7 km/h 93 % 0.0 mm 28 W/m2
06:45 17.2 °C 15.9 °C 1020.9 hPa West 1.6 km/h 11.3 km/h 92 % 0.0 mm 30 W/m2
06:50 17.2 °C 15.9 °C 1020.5 hPa WSW 1.6 km/h 11.3 km/h 92 % 0.0 mm 37 W/m2
06:55 17.3 °C 16.0 °C 1020.5 hPa West 3.2 km/h 9.7 km/h 92 % 0.0 mm 33 W/m2
07:05 17.4 °C 16.1 °C 1020.9 hPa SW 8.0 km/h 11.3 km/h 92 % 0.0 mm 46 W/m2
07:10 17.5 °C 16.2 °C 1020.9 hPa WSW 12.9 km/h 12.9 km/h 92 % 0.0 mm 40 W/m2
07:15 17.6 °C 16.2 °C 1020.5 hPa WSW 8.0 km/h 12.9 km/h 92 % 0.0 mm 40 W/m2
07:20 17.6 °C 16.1 °C 1020.9 hPa WSW 8.0 km/h 12.9 km/h 91 % 0.0 mm 28 W/m2
07:25 17.6 °C 16.1 °C 1020.9 hPa SW 3.2 km/h 12.9 km/h 91 % 0.0 mm 25 W/m2
07:30 17.6 °C 16.1 °C 1020.9 hPa West 9.7 km/h 16.1 km/h 91 % 0.0 mm 40 W/m2
07:35 17.6 °C 16.1 °C 1020.9 hPa West 4.8 km/h 16.1 km/h 91 % 0.0 mm 28 W/m2
07:40 17.6 °C 16.1 °C 1020.5 hPa WSW 4.8 km/h 12.9 km/h 91 % 0.0 mm 30 W/m2
07:45 17.7 °C 16.2 °C 1020.9 hPa WSW 3.2 km/h 12.9 km/h 91 % 0.0 mm 44 W/m2
07:50 17.7 °C 16.2 °C 1020.9 hPa NW 9.7 km/h 12.9 km/h 91 % 0.0 mm 141 W/m2
07:55 17.9 °C 16.5 °C 1020.9 hPa West 1.6 km/h 11.3 km/h 91 % 0.0 mm 202 W/m2
08:00 18.2 °C 16.5 °C 1020.9 hPa WSW 3.2 km/h 11.3 km/h 90 % 0.0 mm 211 W/m2
08:05 18.2 °C 16.4 °C 1020.9 hPa WSW 3.2 km/h 11.3 km/h 89 % 0.0 mm 72 W/m2
08:10 18.3 °C 16.6 °C 1020.9 hPa WSW 8.0 km/h 11.3 km/h 90 % 0.0 mm 248 W/m2
08:15 18.6 °C 16.7 °C 1020.9 hPa WSW 6.4 km/h 11.3 km/h 89 % 0.0 mm 258 W/m2
08:20 18.7 °C 16.6 °C 1020.9 hPa WSW 11.3 km/h 12.9 km/h 88 % 0.0 mm 295 W/m2
08:25 18.8 °C 16.8 °C 1020.9 hPa WSW 6.4 km/h 12.9 km/h 88 % 0.0 mm 410 W/m2
08:30 19.1 °C 16.8 °C 1020.9 hPa WSW 12.9 km/h 16.1 km/h 87 % 0.0 mm 160 W/m2
08:40 18.8 °C 16.8 °C 1020.9 hPa Calm   20.9 km/h 88 % 0.0 mm 185 W/m2
08:45 18.8 °C 16.6 °C 1020.9 hPa WSW 3.2 km/h 16.1 km/h 87 % 0.0 mm 127 W/m2
08:50 18.8 °C 16.6 °C 1020.9 hPa WNW 8.0 km/h 16.1 km/h 87 % 0.0 mm 113 W/m2
08:55 18.7 °C 16.5 °C 1020.9 hPa WSW 6.4 km/h 16.1 km/h 87 % 0.0 mm 104 W/m2
09:00 18.7 °C 16.5 °C 1020.9 hPa West 3.2 km/h 11.3 km/h 87 % 0.0 mm 111 W/m2
09:05 18.6 °C 16.4 °C 1020.9 hPa SW 9.7 km/h 14.5 km/h 87 % 0.0 mm 114 W/m2
09:10 18.7 °C 16.6 °C 1020.9 hPa WSW 4.8 km/h 14.5 km/h 88 % 0.0 mm 114 W/m2
09:15 18.6 °C 16.4 °C 1020.9 hPa SW 9.7 km/h 16.1 km/h 87 % 0.0 mm 105 W/m2
09:20 18.6 °C 16.4 °C 1020.9 hPa Calm   16.1 km/h 87 % 0.0 mm 90 W/m2
09:25 18.6 °C 16.4 °C 1020.9 hPa WNW 8.0 km/h 14.5 km/h 87 % 0.0 mm 60 W/m2
09:30 18.6 °C 16.3 °C 1020.9 hPa WNW 1.6 km/h 14.5 km/h 87 % 0.0 mm 42 W/m2
09:35 18.4 °C 16.5 °C 1020.9 hPa SW 11.3 km/h 11.3 km/h 89 % 0.0 mm 53 W/m2
09:40 18.2 °C 16.6 °C 1020.9 hPa WNW 4.8 km/h 16.1 km/h 90 % 0.0 mm 79 W/m2
09:45 18.2 °C 16.7 °C 1020.9 hPa Calm   16.1 km/h 91 % 0.0 mm 123 W/m2
09:50 18.3 °C 16.7 °C 1020.9 hPa West 8.0 km/h 11.3 km/h 90 % 0.0 mm 146 W/m2
09:55 18.4 °C 16.7 °C 1020.9 hPa WSW 4.8 km/h 14.5 km/h 90 % 0.0 mm 169 W/m2
10:00 18.6 °C 16.7 °C 1020.9 hPa West 4.8 km/h 16.1 km/h 89 % 0.0 mm 178 W/m2
10:05 18.8 °C 16.9 °C 1020.9 hPa WSW 3.2 km/h 16.1 km/h 89 % 0.0 mm 271 W/m2
10:10 19.3 °C 17.4 °C 1020.9 hPa West 8.0 km/h 14.5 km/h 89 % 0.0 mm 260 W/m2
10:15 19.2 °C 16.8 °C 1020.9 hPa West 12.9 km/h 17.7 km/h 86 % 0.0 mm 232 W/m2
10:20 19.0 °C 16.4 °C 1020.9 hPa West 8.0 km/h 17.7 km/h 85 % 0.0 mm 132 W/m2
10:25 19.1 °C 16.8 °C 1020.9 hPa West 6.4 km/h 16.1 km/h 87 % 0.0 mm 661 W/m2
10:30 19.8 °C 16.8 °C 1020.9 hPa WNW 9.7 km/h 17.7 km/h 83 % 0.0 mm 638 W/m2
10:35 20.2 °C 17.2 °C 1020.9 hPa WSW 4.8 km/h 17.7 km/h 83 % 0.0 mm 638 W/m2
10:40 20.7 °C 17.3 °C 1020.9 hPa WNW 11.3 km/h 19.3 km/h 81 % 0.0 mm 652 W/m2
10:45 20.6 °C 17.2 °C 1020.5 hPa WSW 12.9 km/h 19.3 km/h 81 % 0.0 mm 663 W/m2
10:50 20.9 °C 17.2 °C 1020.5 hPa WNW 4.8 km/h 16.1 km/h 79 % 0.0 mm 673 W/m2
10:55 20.9 °C 17.1 °C 1020.5 hPa WSW 6.4 km/h 16.1 km/h 79 % 0.0 mm 687 W/m2
11:00 21.1 °C 17.1 °C 1020.5 hPa WSW 14.5 km/h 16.1 km/h 78 % 0.0 mm 696 W/m2
11:05 21.2 °C 17.0 °C 1020.5 hPa West 8.0 km/h 17.7 km/h 77 % 0.0 mm 708 W/m2
11:10 20.9 °C 16.7 °C 1020.9 hPa WNW 6.4 km/h 17.7 km/h 77 % 0.0 mm 719 W/m2
11:15 20.9 °C 16.8 °C 1020.9 hPa West 4.8 km/h 16.1 km/h 77 % 0.0 mm 729 W/m2
11:20 20.9 °C 17.0 °C 1020.5 hPa Calm   16.1 km/h 78 % 0.0 mm 738 W/m2
11:25 21.1 °C 16.7 °C 1020.9 hPa West 14.5 km/h 17.7 km/h 76 % 0.0 mm 751 W/m2
11:30 21.3 °C 17.1 °C 1020.5 hPa West 9.7 km/h 17.7 km/h 77 % 0.0 mm 761 W/m2
11:35 21.4 °C 17.6 °C 1020.9 hPa WSW 3.2 km/h 19.3 km/h 79 % 0.0 mm 766 W/m2
11:40 21.7 °C 17.3 °C 1020.9 hPa West 6.4 km/h 19.3 km/h 76 % 0.0 mm 788 W/m2
11:45 21.8 °C 17.6 °C 1020.9 hPa West 4.8 km/h 22.5 km/h 77 % 0.0 mm 766 W/m2
11:50 21.8 °C 17.1 °C 1020.9 hPa WSW 1.6 km/h 22.5 km/h 75 % 0.0 mm 722 W/m2
11:55 21.4 °C 16.8 °C 1020.9 hPa WSW 9.7 km/h 17.7 km/h 75 % 0.0 mm 584 W/m2
12:00 21.2 °C 17.0 °C 1020.9 hPa West 12.9 km/h 17.7 km/h 77 % 0.0 mm 483 W/m2
12:05 21.2 °C 17.2 °C 1020.9 hPa NW 6.4 km/h 16.1 km/h 78 % 0.0 mm 603 W/m2
12:10 21.2 °C 16.8 °C 1020.9 hPa West 4.8 km/h 20.9 km/h 76 % 0.0 mm 448 W/m2
12:15 20.9 °C 16.8 °C 1020.5 hPa WNW 8.0 km/h 20.9 km/h 77 % 0.0 mm 410 W/m2
12:20 20.6 °C 16.6 °C 1020.9 hPa West 20.9 km/h 20.9 km/h 78 % 0.0 mm 381 W/m2
12:25 20.3 °C 16.5 °C 1020.9 hPa WNW 14.5 km/h 20.9 km/h 79 % 0.0 mm 461 W/m2
12:30 20.6 °C 17.0 °C 1020.9 hPa WSW 1.6 km/h 20.9 km/h 80 % 0.0 mm 390 W/m2
12:35 20.6 °C 16.8 °C 1020.9 hPa NW 4.8 km/h 19.3 km/h 79 % 0.0 mm 418 W/m2
12:40 20.6 °C 17.0 °C 1020.9 hPa West 11.3 km/h 19.3 km/h 80 % 0.0 mm 411 W/m2
12:45 20.3 °C 16.6 °C 1020.5 hPa West 9.7 km/h 17.7 km/h 79 % 0.0 mm 455 W/m2
12:50 20.5 °C 16.5 °C 1020.5 hPa West 8.0 km/h 19.3 km/h 78 % 0.0 mm 415 W/m2
12:55 21.0 °C 17.6 °C 1020.5 hPa WNW 6.4 km/h 19.3 km/h 81 % 0.0 mm 1139 W/m2
13:00 21.2 °C 17.0 °C 1020.5 hPa WSW 12.9 km/h 17.7 km/h 77 % 0.0 mm 958 W/m2
13:05 21.4 °C 17.2 °C 1020.5 hPa WSW 12.9 km/h 19.3 km/h 77 % 0.0 mm 506 W/m2
13:10 21.9 °C 17.7 °C 1020.5 hPa WNW 3.2 km/h 19.3 km/h 77 % 0.0 mm 918 W/m2
13:15 22.1 °C 17.6 °C 1020.5 hPa WSW 14.5 km/h 19.3 km/h 76 % 0.0 mm 925 W/m2
13:20 21.8 °C 17.8 °C 1020.5 hPa West 9.7 km/h 19.3 km/h 78 % 0.0 mm 907 W/m2
13:25 22.1 °C 18.3 °C 1020.5 hPa WSW 16.1 km/h 20.9 km/h 79 % 0.0 mm 907 W/m2
13:30 22.0 °C 17.4 °C 1020.9 hPa WSW 9.7 km/h 22.5 km/h 75 % 0.0 mm 990 W/m2
13:40 21.7 °C 17.3 °C 1020.5 hPa WSW 6.4 km/h 24.1 km/h 76 % 0.0 mm 1004 W/m2
13:45 22.6 °C 17.9 °C 1020.5 hPa NW 6.4 km/h 22.5 km/h 75 % 0.0 mm 960 W/m2
13:50 23.0 °C 17.9 °C 1020.5 hPa NW 8.0 km/h 20.9 km/h 73 % 0.0 mm 919 W/m2
13:55 22.2 °C 16.9 °C 1020.5 hPa West 9.7 km/h 20.9 km/h 72 % 0.0 mm 916 W/m2
14:00 22.6 °C 17.7 °C 1020.5 hPa West 8.0 km/h 20.9 km/h 74 % 0.0 mm 761 W/m2
14:05 22.4 °C 17.1 °C 1020.5 hPa WSW 25.7 km/h 25.7 km/h 72 % 0.0 mm 969 W/m2
14:10 22.7 °C 17.4 °C 1020.5 hPa SW 9.7 km/h 25.7 km/h 72 % 0.0 mm 875 W/m2
14:15 22.1 °C 16.8 °C 1020.5 hPa West 11.3 km/h 24.1 km/h 72 % 0.0 mm 893 W/m2
14:20 22.5 °C 17.2 °C 1020.5 hPa West 1.6 km/h 24.1 km/h 72 % 0.0 mm 911 W/m2
14:25 22.6 °C 17.3 °C 1020.2 hPa West 6.4 km/h 24.1 km/h 72 % 0.0 mm 780 W/m2
14:30 22.7 °C 16.9 °C 1020.2 hPa West 17.7 km/h 25.7 km/h 70 % 0.0 mm 905 W/m2
14:35 22.0 °C 16.9 °C 1020.2 hPa WNW 12.9 km/h 25.7 km/h 73 % 0.0 mm 900 W/m2
14:40 22.0 °C 17.2 °C 1020.2 hPa WNW 11.3 km/h 22.5 km/h 74 % 0.0 mm 896 W/m2
14:45 22.4 °C 17.4 °C 1020.2 hPa West 17.7 km/h 19.3 km/h 73 % 0.0 mm 896 W/m2
14:50 22.6 °C 17.5 °C 1020.2 hPa WSW 11.3 km/h 19.3 km/h 73 % 0.0 mm 898 W/m2
14:55 22.5 °C 17.4 °C 1020.2 hPa West 6.4 km/h 19.3 km/h 73 % 0.0 mm 895 W/m2
15:00 22.2 °C 16.9 °C 1020.2 hPa WNW 6.4 km/h 29.0 km/h 72 % 0.0 mm 888 W/m2
15:05 21.8 °C 17.4 °C 1020.2 hPa West 14.5 km/h 29.0 km/h 76 % 0.0 mm 884 W/m2
15:10 21.7 °C 17.0 °C 1020.2 hPa West 16.1 km/h 25.7 km/h 75 % 0.0 mm 881 W/m2
15:15 21.9 °C 17.3 °C 1020.2 hPa SW 8.0 km/h 25.7 km/h 75 % 0.0 mm 879 W/m2
15:20 22.1 °C 17.0 °C 1020.2 hPa WSW 14.5 km/h 24.1 km/h 73 % 0.0 mm 896 W/m2
15:25 22.1 °C 17.6 °C 1019.9 hPa West 12.9 km/h 20.9 km/h 76 % 0.0 mm 875 W/m2
15:30 21.8 °C 17.1 °C 1019.9 hPa West 12.9 km/h 25.7 km/h 75 % 0.0 mm 863 W/m2
15:35 21.8 °C 16.6 °C 1019.9 hPa WSW 8.0 km/h 25.7 km/h 72 % 0.0 mm 856 W/m2
15:40 22.3 °C 17.0 °C 1019.9 hPa WSW 9.7 km/h 20.9 km/h 72 % 0.0 mm 846 W/m2
15:45 22.2 °C 16.7 °C 1020.2 hPa West 8.0 km/h 20.9 km/h 71 % 0.0 mm 840 W/m2
15:50 22.1 °C 16.8 °C 1019.9 hPa WSW 4.8 km/h 19.3 km/h 72 % 0.0 mm 833 W/m2
15:55 22.2 °C 16.9 °C 1019.9 hPa WNW 6.4 km/h 22.5 km/h 72 % 0.0 mm 828 W/m2
16:00 22.4 °C 16.9 °C 1019.9 hPa WNW 16.1 km/h 24.1 km/h 71 % 0.0 mm 823 W/m2
16:05 22.3 °C 16.5 °C 1019.9 hPa West 20.9 km/h 24.1 km/h 70 % 0.0 mm 810 W/m2
16:10 21.8 °C 16.5 °C 1019.9 hPa West 17.7 km/h 25.7 km/h 72 % 0.0 mm 807 W/m2
16:15 21.7 °C 16.5 °C 1019.9 hPa WSW 19.3 km/h 25.7 km/h 72 % 0.0 mm 798 W/m2
16:20 21.9 °C 16.7 °C 1019.9 hPa WSW 14.5 km/h 22.5 km/h 72 % 0.0 mm 789 W/m2
16:25 21.7 °C 16.2 °C 1019.9 hPa WNW 12.9 km/h 25.7 km/h 71 % 0.0 mm 780 W/m2
16:30 22.1 °C 16.6 °C 1019.9 hPa West 8.0 km/h 25.7 km/h 71 % 0.0 mm 770 W/m2
16:35 22.6 °C 16.4 °C 1019.5 hPa WSW 8.0 km/h 19.3 km/h 68 % 0.0 mm 761 W/m2
16:40 22.7 °C 16.9 °C 1019.5 hPa WSW 9.7 km/h 22.5 km/h 70 % 0.0 mm 756 W/m2
16:45 22.1 °C 16.2 °C 1019.9 hPa West 12.9 km/h 22.5 km/h 69 % 0.0 mm 745 W/m2
16:50 22.4 °C 16.7 °C 1019.9 hPa West 9.7 km/h 20.9 km/h 70 % 0.0 mm 735 W/m2
16:55 22.1 °C 16.4 °C 1019.5 hPa WNW 9.7 km/h 22.5 km/h 70 % 0.0 mm 724 W/m2
17:00 21.8 °C 16.3 °C 1019.5 hPa West 17.7 km/h 22.5 km/h 71 % 0.0 mm 715 W/m2
17:05 21.4 °C 16.6 °C 1019.5 hPa WNW 14.5 km/h 22.5 km/h 74 % 0.0 mm 705 W/m2
17:10 21.3 °C 16.2 °C 1019.5 hPa WNW 3.2 km/h 25.7 km/h 73 % 0.0 mm 691 W/m2
17:15 21.7 °C 16.6 °C 1019.5 hPa WSW 12.9 km/h 25.7 km/h 73 % 0.0 mm 677 W/m2
17:20 21.9 °C 16.9 °C 1019.5 hPa WNW 12.9 km/h 20.9 km/h 73 % 0.0 mm 670 W/m2
17:25 22.2 °C 16.4 °C 1019.5 hPa West 16.1 km/h 24.1 km/h 70 % 0.0 mm 659 W/m2
17:30 21.8 °C 16.5 °C 1019.5 hPa West 9.7 km/h 27.4 km/h 72 % 0.0 mm 645 W/m2
17:35 21.4 °C 16.6 °C 1019.5 hPa WNW 6.4 km/h 27.4 km/h 74 % 0.0 mm 635 W/m2
17:40 21.6 °C 16.5 °C 1019.5 hPa West 17.7 km/h 22.5 km/h 73 % 0.0 mm 624 W/m2
17:45 21.4 °C 16.6 °C 1019.5 hPa WSW 9.7 km/h 22.5 km/h 74 % 0.0 mm 612 W/m2
17:50 21.6 °C 16.1 °C 1019.5 hPa SW 8.0 km/h 20.9 km/h 71 % 0.0 mm 596 W/m2
17:55 21.4 °C 16.4 °C 1019.5 hPa West 17.7 km/h 22.5 km/h 73 % 0.0 mm 584 W/m2
18:00 21.4 °C 16.4 °C 1019.5 hPa NW 17.7 km/h 25.7 km/h 73 % 0.0 mm 571 W/m2
18:05 21.2 °C 16.6 °C 1019.5 hPa West 16.1 km/h 25.7 km/h 75 % 0.0 mm 557 W/m2
18:10 21.1 °C 15.9 °C 1019.5 hPa WSW 8.0 km/h 22.5 km/h 72 % 0.0 mm 545 W/m2
18:15 21.0 °C 16.2 °C 1019.5 hPa WNW 12.9 km/h 22.5 km/h 74 % 0.0 mm 533 W/m2
18:20 21.1 °C 16.0 °C 1019.2 hPa West 19.3 km/h 22.5 km/h 73 % 0.0 mm 519 W/m2
18:25 20.9 °C 16.1 °C 1019.2 hPa SW 12.9 km/h 22.5 km/h 74 % 0.0 mm 506 W/m2
18:30 21.2 °C 16.2 °C 1019.2 hPa WSW 8.0 km/h 20.9 km/h 73 % 0.0 mm 489 W/m2
18:35 21.0 °C 16.2 °C 1019.5 hPa WSW 12.9 km/h 24.1 km/h 74 % 0.0 mm 475 W/m2
18:40 21.1 °C 16.5 °C 1019.2 hPa SW 6.4 km/h 24.1 km/h 75 % 0.0 mm 459 W/m2
18:45 20.9 °C 16.3 °C 1019.2 hPa West 17.7 km/h 22.5 km/h 75 % 0.0 mm 445 W/m2
18:50 20.9 °C 16.6 °C 1019.2 hPa West 6.4 km/h 22.5 km/h 76 % 0.0 mm 432 W/m2
18:55 21.3 °C 16.5 °C 1019.2 hPa NW 8.0 km/h 19.3 km/h 74 % 0.0 mm 418 W/m2
19:00 21.2 °C 16.6 °C 1019.2 hPa West 17.7 km/h 19.3 km/h 75 % 0.0 mm 403 W/m2
19:05 21.1 °C 16.5 °C 1019.2 hPa WNW 6.4 km/h 19.3 km/h 75 % 0.0 mm 387 W/m2
19:10 21.0 °C 16.2 °C 1019.2 hPa West 8.0 km/h 20.9 km/h 74 % 0.0 mm 367 W/m2
19:15 20.8 °C 16.2 °C 1019.2 hPa SW 14.5 km/h 20.9 km/h 75 % 0.0 mm 353 W/m2
19:20 20.4 °C 16.3 °C 1019.2 hPa WSW 8.0 km/h 20.9 km/h 77 % 0.0 mm 345 W/m2
19:25 20.7 °C 16.5 °C 1019.2 hPa WSW 3.2 km/h 22.5 km/h 77 % 0.0 mm 325 W/m2
19:30 20.6 °C 16.0 °C 1019.2 hPa West 6.4 km/h 22.5 km/h 75 % 0.0 mm 313 W/m2
19:40 20.6 °C 16.2 °C 1019.2 hPa WSW 11.3 km/h 19.3 km/h 76 % 0.0 mm 258 W/m2
19:45 20.3 °C 16.2 °C 1019.2 hPa WSW 11.3 km/h 20.9 km/h 77 % 0.0 mm 248 W/m2
19:50 20.2 °C 16.2 °C 1019.2 hPa West 9.7 km/h 20.9 km/h 78 % 0.0 mm 223 W/m2
19:55 20.3 °C 16.4 °C 1019.2 hPa West 11.3 km/h 19.3 km/h 78 % 0.0 mm 207 W/m2
20:00 20.1 °C 15.9 °C 1019.2 hPa SSW 4.8 km/h 19.3 km/h 77 % 0.0 mm 195 W/m2
20:05 20.0 °C 16.0 °C 1019.2 hPa West 4.8 km/h 19.3 km/h 78 % 0.0 mm 185 W/m2
20:10 19.7 °C 15.8 °C 1019.2 hPa West 11.3 km/h 22.5 km/h 78 % 0.0 mm 183 W/m2
20:15 19.9 °C 16.1 °C 1019.2 hPa West 12.9 km/h 22.5 km/h 79 % 0.0 mm 171 W/m2
20:20 19.8 °C 16.0 °C 1019.2 hPa WNW 4.8 km/h 17.7 km/h 79 % 0.0 mm 144 W/m2
20:25 19.7 °C 15.9 °C 1019.2 hPa WSW 12.9 km/h 19.3 km/h 79 % 0.0 mm 127 W/m2
20:30 19.4 °C 15.9 °C 1019.2 hPa West 12.9 km/h 19.3 km/h 80 % 0.0 mm 118 W/m2
20:35 19.4 °C 16.0 °C 1019.2 hPa SW 6.4 km/h 16.1 km/h 81 % 0.0 mm 84 W/m2
20:40 19.3 °C 16.1 °C 1019.2 hPa West 14.5 km/h 16.1 km/h 82 % 0.0 mm 51 W/m2
20:45 19.2 °C 16.0 °C 1019.2 hPa West 6.4 km/h 14.5 km/h 82 % 0.0 mm 39 W/m2
20:50 19.1 °C 15.9 °C 1019.2 hPa West 6.4 km/h 14.5 km/h 82 % 0.0 mm 26 W/m2
20:55 18.9 °C 16.0 °C 1019.2 hPa WNW 1.6 km/h 9.7 km/h 83 % 0.0 mm 32 W/m2
21:00 18.8 °C 16.1 °C 1019.2 hPa West 6.4 km/h 12.9 km/h 84 % 0.0 mm 21 W/m2
21:05 18.7 °C 15.9 °C 1018.8 hPa West 4.8 km/h 14.5 km/h 84 % 0.0 mm 30 W/m2
21:10 18.6 °C 15.9 °C 1018.8 hPa West 6.4 km/h 14.5 km/h 84 % 0.0 mm 37 W/m2
21:15 18.6 °C 15.9 °C 1018.8 hPa West 8.0 km/h 14.5 km/h 84 % 0.0 mm 35 W/m2
21:20 18.6 °C 15.9 °C 1018.8 hPa SW 9.7 km/h 16.1 km/h 84 % 0.0 mm 16 W/m2
21:25 18.6 °C 15.9 °C 1018.8 hPa WSW 4.8 km/h 16.1 km/h 84 % 0.0 mm 14 W/m2
21:30 18.6 °C 16.0 °C 1018.8 hPa West 6.4 km/h 14.5 km/h 85 % 0.0 mm 9 W/m2
21:35 18.5 °C 15.9 °C 1019.2 hPa WSW 9.7 km/h 14.5 km/h 85 % 0.0 mm 9 W/m2
21:40 18.5 °C 15.9 °C 1019.2 hPa WSW 12.9 km/h 16.1 km/h 85 % 0.0 mm 7 W/m2
21:45 18.4 °C 16.1 °C 1019.2 hPa West 1.6 km/h 16.1 km/h 86 % 0.0 mm 5 W/m2
21:50 18.4 °C 16.0 °C 1019.2 hPa West 12.9 km/h 14.5 km/h 86 % 0.0 mm 5 W/m2
21:55 18.4 °C 16.2 °C 1019.2 hPa West 3.2 km/h 16.1 km/h 87 % 0.0 mm 5 W/m2
22:00 18.3 °C 16.1 °C 1019.2 hPa West 12.9 km/h 17.7 km/h 87 % 0.0 mm 0 W/m2
22:05 18.2 °C 16.0 °C 1019.2 hPa WNW 9.7 km/h 17.7 km/h 87 % 0.0 mm 0 W/m2
22:10 18.2 °C 16.0 °C 1019.2 hPa WSW 1.6 km/h 16.1 km/h 87 % 0.0 mm 0 W/m2
22:15 18.1 °C 16.0 °C 1019.2 hPa Calm   14.5 km/h 88 % 0.0 mm 0 W/m2
22:20 18.0 °C 16.0 °C 1019.2 hPa WNW 9.7 km/h 14.5 km/h 88 % 0.0 mm 0 W/m2
22:25 17.9 °C 15.9 °C 1019.2 hPa West 9.7 km/h 16.1 km/h 88 % 0.0 mm 0 W/m2
22:30 17.9 °C 15.9 °C 1019.2 hPa West 3.2 km/h 16.1 km/h 88 % 0.0 mm 0 W/m2
22:35 17.9 °C 15.9 °C 1019.2 hPa WSW 4.8 km/h 12.9 km/h 88 % 0.0 mm 0 W/m2
22:40 17.9 °C 15.9 °C 1019.2 hPa WNW 4.8 km/h 14.5 km/h 88 % 0.0 mm 0 W/m2
22:45 18.1 °C 15.9 °C 1019.5 hPa West 4.8 km/h 16.1 km/h 87 % 0.0 mm 0 W/m2
22:50 18.2 °C 16.0 °C 1019.2 hPa West 3.2 km/h 16.1 km/h 87 % 0.0 mm 0 W/m2
22:55 18.2 °C 16.0 °C 1019.5 hPa West 6.4 km/h 12.9 km/h 87 % 0.0 mm 0 W/m2
23:00 18.3 °C 16.1 °C 1019.5 hPa West 4.8 km/h 14.5 km/h 87 % 0.0 mm 0 W/m2
23:05 18.2 °C 16.0 °C 1019.5 hPa WSW 6.4 km/h 14.5 km/h 87 % 0.0 mm 0 W/m2
23:10 18.1 °C 15.9 °C 1019.5 hPa WSW 1.6 km/h 14.5 km/h 87 % 0.0 mm 0 W/m2
23:15 18.0 °C 15.8 °C 1019.5 hPa WSW 11.3 km/h 17.7 km/h 87 % 0.0 mm 0 W/m2
23:20 18.0 °C 15.6 °C 1019.5 hPa West 6.4 km/h 22.5 km/h 86 % 0.0 mm 0 W/m2
23:30 18.1 °C 15.7 °C 1019.5 hPa West 6.4 km/h 19.3 km/h 86 % 0.0 mm 0 W/m2
23:35 17.9 °C 15.6 °C 1019.5 hPa SW 9.7 km/h 19.3 km/h 86 % 0.0 mm 0 W/m2
23:40 18.1 °C 15.5 °C 1019.5 hPa WSW 6.4 km/h 16.1 km/h 85 % 0.0 mm 0 W/m2
23:45 18.1 °C 15.5 °C 1019.5 hPa WSW 14.5 km/h 16.1 km/h 85 % 0.0 mm 0 W/m2
23:50 18.2 °C 15.6 °C 1019.5 hPa WSW 4.8 km/h 19.3 km/h 85 % 0.0 mm 0 W/m2
23:55 18.2 °C 15.7 °C 1019.5 hPa WSW 11.3 km/h 19.3 km/h 85 % 0.0 mm 0 W/m2
Avec l'autorisation de Weather Underground - 1.75 mb